Regional Weather Roundup
Issued by NWS

Home | Current Version | Previous Version | Graphics & Text | Print | Product List | Glossary On
Versions: 1 2 3 4 5 6 7 8 9 10 11 12 13 14 15 16 17 18 19 20 21 22 23 24 25 26 27 28 29 30 31 32 33 34 35 36 37 38 39 40 41 42 43 44 45 46 47 48 49 50
000
ASUS43 KLSX 291157
RWRMO

WEATHER SUMMARY FOR MISSOURI
NATIONAL WEATHER SERVICE SPRINGFIELD MO
700 AM CDT SAT AUG 29 2015

NOTE: "FAIR" INDICATES FEW OR NO CLOUDS BELOW 12,000 FEET WITH NO
       SIGNIFICANT WEATHER AND/OR OBSTRUCTIONS TO VISIBILITY.
       CURRENT SKY AND/OR WEATHER CONDITIONS ARE NOT AVAILABLE FOR
       CHILLICOTHE AND FARMINGTON.

MOZ001>031-035>038-043-044-053-054-291300-
...NORTHERN AND WESTERN MISSOURI...

CITY           SKY/WX    TMP DP  RH WIND       PRES   REMARKS
KANSAS CTY INT CLOUDY    67  65  93 NW7       29.98R
6HR MIN TEMP:  67; 6HR MAX TEMP:  71;

LEE`S SUMMIT   CLOUDY    70  69  97 CALM      29.97R FOG
6HR MIN TEMP:  70; 6HR MAX TEMP:  71;

ST JOSEPH      CLOUDY    66  65  96 NW8       29.98R
6HR MIN TEMP:  66; 6HR MAX TEMP:  71;

CHILLICOTHE      N/A     70  68  93 CALM      29.97R
6HR MIN TEMP:  70; 6HR MAX TEMP:  71;


$$
MOZ066>068-077>081-088>096-101>105-291300-
...SOUTHWEST MISSOURI...

CITY           SKY/WX    TMP DP  RH WIND       PRES   REMARKS
SPRINGFIELD    CLOUDY    69  61  75 S13       30.01R
6HR MIN TEMP:  69; 6HR MAX TEMP:  72;

JOPLIN         CLEAR     68  63  84 S3        29.99R
6HR MIN TEMP:  68; 6HR MAX TEMP:  73;


$$
MOZ032>034-039>042-045>050-055>058-069>072-291300-
...CENTRAL MISSOURI...

CITY           SKY/WX    TMP DP  RH WIND       PRES   REMARKS
COLUMBIA       NOT AVBL
JEFFERSON CITY CLOUDY    69  63  81 SE3       29.99R
6HR MIN TEMP:  68; 6HR MAX TEMP:  73;

ROLLA          LGT RAIN  67  61  81 S12       30.00R
6HR MIN TEMP:  67; 6HR MAX TEMP:  70; 6HR PCP: TRACE;

SEDALIA        CLEAR     67  61  81 S5        29.98R
6HR MIN TEMP:  67; 6HR MAX TEMP:  72;


$$
MOZ051-052-059>065-291300-
...EAST CENTRAL MISSOURI...

CITY           SKY/WX    TMP DP  RH WIND       PRES   REMARKS
ST LOUIS INTL  MOCLDY    73  62  68 SE7       30.02R
6HR MIN TEMP:  72; 6HR MAX TEMP:  75; 6HR PCP: TRACE;


$$
MOZ072>076-082>087-097>100-106>115-291300-
...SOUTH CENTRAL AND SOUTHEAST MISSOURI...

CITY           SKY/WX    TMP DP  RH WIND       PRES   REMARKS
CAPE GIRARDEAU CLOUDY    70  66  87 CALM      30.05R
6HR MIN TEMP:  67; 6HR MAX TEMP:  71;

POPLAR BLUFF   CLOUDY    68  66  93 CALM      30.03R FOG
6HR MIN TEMP:  67; 6HR MAX TEMP:  69;

WEST PLAINS    CLOUDY    67  61  81 SW7       30.06R
6HR MIN TEMP:  66; 6HR MAX TEMP:  71; 6HR PCP:  0.03;


$$



USA.gov is the U.S. government's official web portal to all federal, state and local government web resources and services.